QPF
0.00 0.00 0.00 0.00 0.00 0.00 0.00 0.00 0.00 0.00 0.00 0.00 0.00 0.00 0.00 0.00 0.00 0.00 0.00 0.00 0.00 0.00 0.00 0.00 0.00 0.00 0.00 0.00 0.00 0.00 0.00 0.00 0.00 0.00 0.00 0.00 0.00 0.00 0.00 0.00 0.00 0.00 0.00 0.00
0.00 0.00 0.00 0.00 0.00 0.00 0.00 0.00 0.00 0.00 0.00 0.00 0.00 0.00 0.00 0.00 0.00 0.00 0.00 0.00 0.00 0.00 0.00 0.00 0.00 0.00 0.00 0.00 0.00 0.00 0.00 0.00 0.00 0.00 0.00 0.01 0.01 0.00 0.00 0.00 0.00 0.00 0.00 0.00
0.00 0.00 0.00 0.00 0.00 0.00 0.00 0.00 0.00 0.00 0.00 0.00 0.00 0.00 0.00 0.00 0.00 0.00 0.00 0.00 0.00 0.00 0.00 0.00 0.00 0.00 0.00 0.00 0.00 0.00 0.00 0.00 0.00 0.00 0.00 0.00 0.01 0.00 0.01 0.00 0.00 0.00 0.00 0.00
0.00 0.00 0.00 0.00 0.00 0.00 0.00 0.00 0.00 0.00 0.00 0.00 0.00 0.00 0.00 0.00 0.00 0.00 0.00 0.00 0.00 0.00 0.00 0.00 0.00 0.00 0.00 0.00 0.00 0.00 0.00 0.00 0.00 0.00 0.00 0.00 0.00 0.00 0.00 0.00 0.01 0.01 0.06 0.10
0.00 0.00 0.00 0.00 0.00 0.00 0.00 0.00 0.00 0.00 0.00 0.01 0.00 0.00 0.00 0.00 0.00 0.00 0.00 0.00 0.00 0.00 0.00 0.00 0.00 0.00 0.00 0.00 0.00 0.00 0.00 0.00 0.00 0.00 0.00 0.00 0.00 0.01 0.01 0.02 0.09 0.12 0.24 0.40
0.00 0.00 0.00 0.00 0.00 0.00 0.00 0.00 0.00 0.00 0.00 0.00 0.00 0.00 0.00 0.00 0.07 0.02 0.02 0.03 0.00 0.00 0.00 0.00 0.00 0.00 0.00 0.00 0.00 0.00 0.00 0.00 0.00 0.00 0.00 0.01 0.01 0.02 0.05 0.05 0.05 0.10 0.22 0.55
0.00 0.00 0.00 0.00 0.00 0.00 0.00 0.00 0.00 0.00 0.00 0.00 0.00 0.00 0.00 0.15 0.15 0.15 0.05 0.10 0.04 0.00 0.00 0.00 0.00 0.00 0.00 0.00 0.00 0.00 0.00 0.00 0.00 0.00 0.00 0.00 0.01 0.02 0.03 0.05 0.05 0.05 0.04 0.04
0.00 0.00 0.00 0.00 0.00 0.00 0.00 0.01 0.00 0.00 0.00 0.00 0.00 0.00 0.04 0.31 0.19 0.41 0.08 0.27 0.11 0.01 0.01 0.00 0.00 0.00 0.01 0.01 0.00 0.00 0.00 0.00 0.00 0.00 0.01 0.02 0.02 0.02 0.03 0.05 0.02 0.02 0.02 0.01
0.00 0.00 0.00 0.00 0.00 0.00 0.02 0.01 0.00 0.00 0.00 0.01 0.02 0.03 0.11 0.17 0.09 0.34 0.13 0.22 0.35 0.03 0.05 0.05 0.05 0.03 0.02 0.01 0.00 0.00 0.01 0.01 0.01 0.01 0.01 0.01 0.01 0.01 0.01 0.01 0.01 0.00 0.00 0.00
0.00 0.00 0.00 0.00 0.00 0.00 0.01 0.01 0.02 0.01 0.01 0.03 0.01 0.07 0.11 0.15 0.13 0.29 0.57 0.18 0.32 0.10 0.06 0.06 0.05 0.04 0.03 0.01 0.01 0.01 0.01 0.01 0.01 0.00 0.00 0.00 0.00 0.00 0.00 0.00 0.00 0.00 0.00 0.00
0.00 0.00 0.00 0.00 0.00 0.00 0.00 0.01 0.01 0.03 0.02 0.07 0.04 0.13 0.17 0.18 0.17 0.18 0.27 0.50 0.18 0.10 0.04 0.04 0.03 0.02 0.01 0.01 0.01 0.01 0.01 0.01 0.00 0.00 0.00 0.00 0.00 0.00 0.00 0.00 0.00 0.00 0.00 0.00
0.00 0.00 0.00 0.00 0.00 0.00 0.00 0.00 0.01 0.07 0.05 0.02 0.11 0.23 0.14 0.17 0.17 0.23 0.19 0.46 0.53 0.31 0.14 0.06 0.04 0.03 0.03 0.02 0.02 0.01 0.00 0.00 0.00 0.00 0.00 0.00 0.00 0.00 0.00 0.00 0.00 0.00 0.00 0.00
0.00 0.00 0.00 0.00 0.00 0.00 0.00 0.01 0.02 0.07 0.04 0.06 0.20 0.13 0.22 0.19 0.17 0.19 0.37 0.30 0.23 0.25 0.28 0.37 0.33 0.24 0.05 0.04 0.05 0.03 0.03 0.02 0.00 0.00 0.00 0.00 0.00 0.00 0.00 0.00 0.00 0.00 0.00 0.00
0.00 0.00 0.00 0.00 0.00 0.05 0.03 0.01 0.00 0.01 0.02 0.11 0.20 0.14 0.14 0.19 0.19 0.19 0.16 0.19 0.26 0.27 0.20 0.23 0.24 0.35 0.26 0.05 0.02 0.03 0.01 0.05 0.05 0.02 0.00 0.00 0.00 0.00 0.00 0.00 0.00 0.00 0.00 0.00
0.00 0.00 0.00 0.00 0.00 0.05 0.08 0.01 0.06 0.08 0.03 0.03 0.16 0.07 0.07 0.11 0.17 0.21 0.23 0.16 0.11 0.12 0.15 0.16 0.19 0.09 0.04 0.04 0.01 0.00 0.00 0.00 0.00 0.00 0.00 0.00 0.00 0.00 0.00 0.00 0.00 0.00 0.00 0.00
0.00 0.00 0.00 0.00 0.00 0.07 0.08 0.03 0.02 0.06 0.03 0.06 0.16 0.06 0.08 0.11 0.11 0.05 0.07 0.13 0.17 0.21 0.20 0.16 0.13 0.10 0.04 0.01 0.00 0.00 0.00 0.00 0.00 0.00 0.00 0.00 0.00 0.00 0.00 0.00 0.00 0.00 0.00 0.00
0.00 0.00 0.00 0.00 0.00 0.07 0.10 0.04 0.06 0.04 0.05 0.05 0.07 0.07 0.04 0.04 0.02 0.01 0.01 0.03 0.07 0.12 0.12 0.10 0.04 0.03 0.03 0.01 0.00 0.00 0.00 0.00 0.00 0.00 0.00 0.00 0.00 0.00 0.00 0.00 0.00 0.00 0.00 0.00
0.00 0.00 0.00 0.00 0.01 0.06 0.04 0.01 0.06 0.07 0.06 0.05 0.06 0.04 0.03 0.04 0.04 0.00 0.00 0.01 0.01 0.01 0.01 0.03 0.04 0.02 0.00 0.00 0.00 0.00 0.00 0.00 0.00 0.00 0.00 0.00 0.00 0.00 0.00 0.00 0.00 0.00 0.00 0.00
0.00 0.00 0.00 0.00 0.01 0.02 0.01 0.00 0.01 0.02 0.02 0.03 0.03 0.02 0.01 0.03 0.02 0.00 0.00 0.00 0.01 0.01 0.01 0.01 0.01 0.01 0.00 0.00 0.00 0.00 0.00 0.00 0.00 0.00 0.00 0.00 0.00 0.00 0.00 0.00 0.00 0.00 0.00 0.00
0.00 0.00 0.00 0.00 0.00 0.00 0.00 0.00 0.00 0.03 0.02 0.00 0.01 0.01 0.00 0.00 0.00 0.01 0.01 0.00 0.00 0.00 0.00 0.00 0.00 0.00 0.00 0.00 0.00 0.00 0.00 0.00 0.00 0.00 0.00 0.00 0.00 0.00 0.00 0.00 0.00 0.00 0.00 0.00
0.00 0.00 0.00 0.00 0.00 0.01 0.00 0.00 0.00 0.02 0.02 0.01 0.02 0.02 0.01 0.01 0.02 0.02 0.01 0.00 0.00 0.00 0.00 0.00 0.00 0.00 0.00 0.00 0.00 0.00 0.00 0.00 0.00 0.00 0.00 0.00 0.00 0.00 0.00 0.00 0.00 0.00 0.00 0.00
0.00 0.00 0.00 0.00 0.00 0.00 0.00 0.00 0.00 0.02 0.02 0.00 0.01 0.02 0.02 0.02 0.02 0.01 0.00 0.00 0.00 0.00 0.00 0.00 0.00 0.00 0.00 0.00 0.00 0.00 0.00 0.00 0.00 0.00 0.00 0.00 0.00 0.00 0.00 0.00 0.00 0.00 0.00 0.00
0.00 0.00 0.00 0.00 0.00 0.00 0.00 0.01 0.01 0.01 0.00 0.00 0.00 0.01 0.01 0.01 0.01 0.00 0.00 0.00 0.00 0.00 0.00 0.00 0.00 0.00 0.00 0.00 0.00 0.00 0.00 0.00 0.00 0.00 0.00 0.00 0.00 0.00 0.00 0.00 0.00 0.00 0.00 0.00
0.00 0.00 0.00 0.00 0.00 0.00 0.00 0.00 0.00 0.00 0.00 0.00 0.00 0.00 0.00 0.00 0.00 0.00 0.00 0.00 0.00 0.00 0.00 0.00 0.00 0.00 0.00 0.00 0.00 0.01 0.00 0.00 0.00 0.00 0.00 0.00 0.00 0.00 0.00 0.00 0.00 0.00 0.01 0.00
0.00 0.00 0.00 0.00 0.00 0.00 0.00 0.00 0.00 0.00 0.00 0.00 0.00 0.00 0.00 0.00 0.00 0.00 0.00 0.00 0.00 0.00 0.00 0.00 0.00 0.00 0.00 0.00 0.00 0.00 0.00 0.00 0.00 0.00 0.00 0.00 0.00 0.00 0.00 0.01 0.01 0.02 0.03 0.03
0.00 0.00 0.00 0.00 0.00 0.00 0.01 0.01 0.00 0.00 0.00 0.00 0.00 0.00 0.00 0.00 0.00 0.00 0.00 0.00 0.00 0.00 0.00 0.00 0.00 0.00 0.00 0.00 0.00 0.00 0.00 0.00 0.00 0.00 0.00 0.00 0.00 0.00 0.00 0.00 0.00 0.01 0.02 0.02
MSLP
1017.70 1017.69 1017.49 1017.31 1017.55 1017.64 1017.78 1017.07 1015.99 1014.29 1013.84 1014.33 1012.87 1011.60 1009.28 1006.65 1008.05 1007.22 1006.42 1005.72 1005.25 1004.74 1003.51 1003.76 1003.45 1002.81 1002.38 1002.19 1002.22 1002.54 1003.60 1004.54 1005.91 1006.76 1007.29 1008.03 1008.36 1009.23 1009.88 1009.95 1010.15 1010.67 1011.03 1011.36
1017.94 1017.49 1017.24 1017.38 1017.54 1017.92 1017.82 1017.03 1015.82 1013.63 1013.40 1014.20 1011.85 1011.04 1007.85 1006.63 1005.54 1005.92 1005.12 1004.30 1003.77 1003.20 1002.55 1002.02 1002.07 1001.72 1001.07 1000.94 1001.50 1001.86 1002.29 1003.01 1004.46 1005.51 1006.13 1006.59 1007.26 1007.98 1008.67 1009.48 1009.56 1009.77 1010.26 1010.88
1017.91 1017.32 1017.28 1017.40 1017.25 1017.60 1017.52 1016.78 1015.64 1015.32 1013.33 1012.91 1012.21 1009.54 1005.69 1004.76 1004.75 1003.75 1003.23 1003.46 1002.91 1002.16 1001.60 1001.51 1000.88 1000.72 1000.32 1000.32 1000.18 1000.61 1001.14 1001.77 1002.65 1004.02 1005.54 1006.24 1006.97 1007.75 1008.18 1008.45 1008.81 1009.21 1009.52 1010.03
1017.88 1017.63 1017.53 1017.57 1017.28 1017.21 1017.00 1015.91 1015.68 1015.28 1014.92 1013.04 1012.40 1010.08 1005.16 1003.55 1003.24 1003.69 1002.87 1002.42 1001.78 1001.05 1000.35 1000.38 1000.11 1000.15 999.63 999.70 999.99 999.91 1000.58 1001.20 1001.88 1003.16 1004.33 1004.89 1004.98 1005.86 1006.29 1007.01 1008.20 1008.75 1009.22 1009.72
1017.33 1017.38 1017.45 1017.39 1016.82 1016.73 1016.13 1015.86 1015.38 1014.93 1014.68 1014.07 1011.85 1011.23 1004.99 1005.01 1003.74 1003.02 1002.96 1002.18 1001.47 999.79 998.75 999.47 999.91 999.88 1000.54 1000.18 1000.07 1000.16 1000.69 1001.38 1001.84 1002.61 1003.57 1004.59 1004.93 1005.55 1006.03 1006.85 1007.91 1008.47 1008.99 1009.57
1017.44 1017.05 1017.15 1016.76 1016.21 1016.16 1015.43 1015.29 1014.61 1014.37 1014.64 1013.81 1011.45 1010.71 1005.63 1007.18 1007.84 1005.55 1003.89 1003.92 1003.09 1000.41 999.18 1000.37 1001.18 1001.63 1001.50 1001.48 1001.16 1001.21 1001.51 1002.47 1002.82 1003.62 1003.95 1004.66 1005.07 1005.59 1006.36 1006.89 1007.62 1008.12 1008.47 1009.26
1017.35 1016.79 1016.51 1016.37 1016.18 1015.57 1015.63 1015.57 1014.47 1014.16 1013.82 1011.37 1010.51 1010.00 1008.61 1009.62 1009.64 1008.68 1007.09 1006.61 1005.45 1004.56 1003.50 1003.44 1003.34 1003.35 1003.33 1003.35 1002.38 1002.73 1002.81 1003.59 1004.15 1004.71 1005.60 1005.70 1006.13 1006.28 1006.72 1007.24 1007.64 1007.92 1008.44 1008.68
1018.17 1016.63 1016.14 1016.10 1015.74 1015.50 1015.51 1015.97 1015.24 1014.37 1012.92 1010.68 1009.94 1009.64 1009.77 1011.18 1011.29 1010.98 1009.91 1009.19 1007.43 1006.77 1005.95 1005.46 1005.45 1005.42 1005.38 1005.43 1003.39 1004.30 1003.93 1004.99 1005.56 1006.16 1006.85 1007.11 1007.26 1007.19 1007.62 1008.06 1008.43 1008.45 1008.60 1008.58
1018.54 1017.31 1016.16 1015.94 1015.60 1015.53 1015.48 1015.47 1015.06 1014.58 1013.22 1012.23 1010.19 1010.23 1010.70 1012.00 1012.01 1012.01 1011.57 1010.64 1009.07 1008.92 1008.09 1007.85 1007.69 1007.33 1007.88 1006.70 1005.85 1006.08 1006.85 1007.10 1007.21 1007.72 1007.91 1008.02 1008.51 1008.44 1008.64 1008.88 1008.71 1008.79 1009.06 1009.26
1018.75 1018.01 1016.39 1016.01 1015.57 1015.24 1015.21 1015.33 1015.00 1014.67 1013.52 1012.02 1010.84 1012.05 1013.38 1013.57 1013.61 1013.84 1012.99 1012.77 1011.77 1011.35 1010.55 1009.81 1008.94 1008.95 1009.07 1008.15 1008.20 1009.09 1008.38 1009.38 1009.08 1009.34 1008.93 1009.47 1009.31 1009.81 1009.80 1009.37 1009.24 1008.95 1008.99 1008.96
1018.79 1018.60 1016.93 1016.12 1015.59 1015.25 1015.00 1015.03 1015.30 1015.03 1014.19 1013.11 1012.46 1014.29 1016.01 1016.09 1015.83 1015.59 1015.30 1014.11 1013.97 1013.37 1012.76 1012.22 1011.55 1011.04 1010.57 1010.30 1010.35 1010.42 1010.92 1011.23 1009.98 1010.74 1010.12 1009.72 1011.27 1010.38 1009.56 1010.14 1009.97 1009.21 1009.21 1008.89
1018.85 1018.66 1017.52 1016.19 1015.57 1015.25 1015.37 1015.56 1015.56 1015.08 1013.97 1013.75 1013.64 1016.04 1017.10 1017.32 1017.28 1016.96 1016.64 1015.83 1015.63 1015.33 1014.72 1014.16 1013.57 1012.92 1012.41 1012.41 1012.23 1012.26 1012.24 1011.73 1011.90 1012.15 1011.84 1011.64 1010.75 1010.21 1010.24 1009.70 1009.58 1009.59 1009.37 1009.03
1018.80 1018.64 1018.01 1016.44 1016.11 1015.61 1016.15 1016.36 1016.32 1015.41 1014.74 1014.36 1014.88 1016.85 1017.98 1017.98 1017.95 1017.93 1017.83 1017.43 1017.04 1015.86 1015.71 1015.42 1015.03 1014.65 1014.36 1014.31 1014.03 1013.90 1013.73 1012.94 1012.77 1012.69 1012.83 1012.40 1011.97 1011.55 1010.91 1010.69 1010.71 1010.31 1010.04 1009.56
1018.70 1018.44 1018.12 1017.58 1017.05 1017.61 1017.46 1017.19 1016.69 1015.97 1015.24 1015.38 1016.90 1017.98 1018.53 1018.68 1018.70 1018.73 1018.52 1018.40 1018.34 1017.69 1017.29 1016.59 1015.92 1015.59 1015.15 1016.10 1015.50 1014.41 1012.70 1011.47 1012.07 1012.23 1013.09 1013.49 1011.70 1011.24 1011.26 1011.45 1010.86 1010.26 1009.65 1009.00
1018.73 1018.43 1018.06 1017.32 1017.01 1017.84 1018.23 1017.98 1017.87 1017.14 1016.64 1016.62 1018.45 1018.90 1019.56 1019.84 1019.87 1019.64 1019.46 1019.21 1018.78 1018.27 1017.95 1017.32 1017.06 1016.97 1016.44 1014.56 1014.08 1014.46 1014.04 1014.26 1014.85 1015.31 1014.99 1013.78 1011.72 1011.68 1011.52 1010.66 1010.48 1009.96 1009.51 1009.01
1018.88 1018.44 1017.92 1017.00 1016.84 1017.49 1018.43 1018.82 1018.95 1018.60 1018.46 1018.35 1018.96 1019.62 1020.42 1020.71 1020.62 1020.08 1019.97 1019.78 1019.37 1019.32 1019.21 1018.77 1018.41 1017.95 1017.30 1016.73 1016.71 1016.23 1016.03 1015.77 1015.46 1015.02 1014.98 1012.61 1012.68 1012.95 1012.23 1011.94 1011.46 1010.54 1009.70 1009.15
1018.90 1018.36 1017.97 1017.33 1017.31 1017.56 1018.68 1019.83 1020.06 1020.21 1020.07 1019.92 1020.04 1020.70 1020.89 1021.21 1021.22 1021.32 1021.09 1020.89 1021.04 1020.82 1020.31 1019.73 1019.45 1018.98 1018.61 1018.21 1018.08 1017.22 1016.28 1015.43 1014.95 1014.13 1014.61 1014.65 1014.39 1013.55 1012.54 1011.60 1010.61 1009.95 1009.32 1008.91
1018.80 1018.40 1018.33 1017.76 1017.54 1018.23 1019.53 1020.33 1020.63 1020.88 1021.10 1021.19 1021.22 1021.35 1021.43 1021.85 1022.18 1022.29 1022.46 1022.51 1022.47 1022.03 1021.69 1021.16 1020.94 1020.57 1020.47 1019.93 1019.42 1018.93 1018.36 1017.34 1016.64 1016.21 1016.09 1015.10 1014.37 1013.64 1012.63 1011.66 1010.93 1010.47 1009.70 1009.03
1018.91 1018.51 1018.36 1018.32 1018.28 1019.16 1019.70 1020.73 1021.40 1021.40 1021.94 1022.12 1021.95 1021.84 1021.69 1021.34 1021.89 1022.65 1023.36 1023.64 1023.90 1023.91 1023.56 1023.09 1022.65 1022.29 1021.86 1020.81 1020.26 1019.93 1018.62 1017.88 1017.30 1018.04 1016.90 1016.00 1015.22 1014.92 1013.81 1012.82 1011.69 1010.52 1009.65 1008.50
1018.96 1018.94 1018.83 1018.90 1019.17 1019.72 1020.65 1021.15 1021.42 1021.74 1022.38 1022.98 1022.89 1022.64 1022.69 1022.61 1022.60 1023.84 1024.32 1024.44 1024.49 1024.56 1024.16 1023.56 1023.52 1023.18 1022.24 1021.44 1020.51 1019.67 1019.18 1018.78 1018.45 1018.13 1017.40 1017.01 1016.30 1015.26 1014.19 1012.89 1011.85 1010.87 1009.76 1008.63
1019.07 1019.06 1019.37 1019.68 1019.96 1020.93 1021.81 1021.38 1021.30 1022.17 1023.94 1023.66 1023.72 1023.52 1023.32 1023.56 1024.46 1025.05 1025.35 1025.70 1025.89 1025.63 1025.13 1024.67 1024.48 1023.59 1022.90 1022.12 1021.17 1020.72 1020.17 1019.70 1019.29 1018.85 1018.12 1017.75 1016.79 1015.62 1014.73 1013.96 1012.75 1011.30 1010.04 1008.91
1019.35 1019.46 1019.82 1020.29 1020.87 1021.95 1022.47 1021.91 1022.56 1024.15 1023.89 1024.26 1024.48 1024.43 1024.35 1024.71 1025.21 1025.58 1025.85 1026.06 1026.35 1026.28 1025.99 1025.49 1024.92 1024.24 1023.47 1022.61 1022.00 1021.58 1021.00 1020.57 1020.10 1019.58 1018.91 1018.16 1017.16 1016.23 1015.47 1014.65 1013.37 1012.09 1010.81 1009.93
1020.01 1020.20 1020.41 1021.23 1021.90 1022.81 1023.44 1023.80 1024.37 1024.54 1024.65 1025.01 1025.14 1025.25 1025.37 1025.62 1026.01 1026.39 1026.58 1026.86 1026.87 1026.74 1026.49 1026.10 1025.63 1025.00 1024.31 1023.52 1022.96 1022.11 1021.72 1020.91 1020.43 1019.74 1019.02 1018.40 1017.85 1017.00 1016.30 1015.34 1014.45 1013.28 1012.28 1011.38
1020.31 1020.65 1021.03 1021.83 1022.68 1023.33 1024.02 1024.57 1024.87 1025.05 1025.28 1025.56 1025.81 1025.89 1026.08 1026.32 1026.60 1026.74 1026.93 1027.09 1027.28 1027.29 1026.92 1026.60 1025.97 1025.31 1024.69 1024.10 1023.43 1023.05 1022.16 1021.45 1020.84 1020.07 1019.50 1019.05 1018.43 1017.53 1016.91 1016.47 1015.86 1015.26 1013.98 1012.75
1020.67 1021.07 1021.63 1022.30 1023.12 1023.86 1024.45 1024.86 1025.25 1025.47 1025.65 1025.81 1026.27 1026.63 1026.69 1026.76 1027.11 1027.41 1027.52 1027.52 1027.56 1027.53 1027.31 1026.85 1026.45 1025.86 1025.29 1024.67 1024.04 1023.57 1022.74 1021.94 1021.35 1020.64 1020.37 1020.01 1019.31 1018.44 1017.85 1017.48 1017.30 1016.83 1016.11 1015.29
1021.15 1021.45 1021.97 1022.44 1023.26 1023.77 1024.69 1025.34 1025.66 1025.84 1026.11 1026.45 1026.64 1026.94 1027.25 1027.44 1027.83 1028.09 1028.28 1028.27 1028.10 1027.92 1027.68 1027.20 1026.85 1026.45 1025.95 1025.30 1024.72 1023.85 1023.18 1022.45 1021.71 1021.25 1021.06 1020.82 1020.41 1019.40 1019.00 1018.11 1017.85 1017.66 1016.56 1015.94
Thickness
5549 5553 5557 5559 5551 5550 5540 5545 5552 5571 5564 5542 5552 5557 5585 5616 5583 5576 5588 5600 5608 5620 5648 5644 5655 5669 5678 5684 5693 5697 5694 5692 5689 5690 5693 5691 5692 5688 5684 5687 5686 5683 5682 5682
5543 5546 5548 5543 5538 5529 5524 5529 5538 5568 5556 5526 5547 5543 5570 5582 5575 5556 5564 5579 5587 5603 5625 5637 5645 5656 5670 5678 5681 5688 5693 5695 5688 5690 5692 5695 5693 5690 5686 5682 5685 5685 5682 5677
5534 5543 5536 5535 5537 5526 5521 5517 5530 5520 5541 5534 5519 5539 5581 5573 5557 5561 5554 5540 5544 5557 5588 5608 5621 5639 5653 5662 5676 5683 5690 5694 5695 5693 5684 5686 5685 5681 5681 5684 5685 5682 5680 5676
5519 5522 5522 5519 5520 5520 5507 5519 5517 5510 5502 5518 5511 5495 5567 5578 5565 5548 5545 5530 5521 5526 5544 5568 5591 5612 5636 5648 5660 5674 5679 5686 5689 5686 5682 5686 5692 5687 5690 5687 5679 5677 5672 5668
5527 5518 5511 5500 5510 5509 5509 5505 5510 5510 5501 5492 5519 5491 5562 5559 5555 5550 5535 5530 5518 5521 5532 5545 5558 5584 5600 5623 5641 5656 5663 5669 5675 5678 5680 5678 5684 5685 5683 5679 5671 5667 5663 5659
5513 5514 5509 5506 5506 5503 5511 5507 5511 5504 5485 5479 5512 5511 5560 5529 5491 5503 5521 5501 5495 5514 5525 5520 5529 5546 5573 5594 5615 5632 5644 5645 5652 5657 5665 5669 5672 5674 5671 5669 5663 5661 5659 5654
5504 5507 5504 5501 5498 5506 5499 5498 5512 5511 5499 5531 5528 5522 5533 5496 5483 5477 5485 5473 5474 5474 5480 5487 5503 5521 5542 5564 5594 5610 5622 5626 5632 5636 5636 5647 5652 5658 5660 5656 5655 5653 5651 5651
5481 5509 5507 5502 5500 5502 5498 5480 5495 5494 5517 5530 5537 5524 5521 5485 5466 5457 5463 5453 5468 5468 5473 5479 5490 5504 5522 5540 5575 5586 5608 5609 5613 5616 5619 5628 5633 5640 5639 5638 5638 5641 5640 5640
5475 5480 5498 5497 5497 5494 5484 5483 5494 5481 5504 5498 5527 5519 5506 5481 5470 5454 5451 5453 5455 5463 5472 5477 5486 5501 5509 5532 5555 5571 5577 5585 5593 5597 5601 5610 5612 5618 5621 5621 5624 5626 5626 5627
5474 5467 5491 5493 5495 5494 5490 5490 5492 5486 5490 5510 5531 5497 5468 5458 5454 5449 5444 5444 5448 5451 5464 5477 5486 5498 5505 5525 5536 5538 5554 5557 5568 5574 5584 5584 5594 5597 5600 5607 5610 5615 5617 5621
5468 5466 5486 5490 5491 5488 5492 5491 5485 5480 5490 5505 5513 5477 5438 5434 5436 5435 5438 5441 5442 5445 5452 5464 5477 5488 5498 5509 5519 5525 5527 5530 5552 5554 5565 5574 5565 5579 5592 5590 5594 5604 5606 5612
5465 5463 5468 5486 5491 5492 5486 5483 5479 5481 5505 5505 5506 5458 5433 5427 5427 5426 5429 5431 5432 5437 5443 5450 5461 5474 5484 5491 5501 5509 5515 5525 5530 5533 5542 5551 5562 5570 5572 5581 5587 5590 5592 5598
5461 5459 5453 5481 5488 5488 5470 5471 5463 5476 5481 5496 5500 5467 5427 5426 5424 5423 5421 5425 5430 5436 5438 5444 5448 5457 5465 5472 5482 5491 5499 5512 5518 5524 5529 5537 5545 5551 5560 5565 5568 5573 5577 5582
5459 5458 5454 5455 5457 5449 5454 5459 5459 5467 5493 5491 5463 5443 5431 5424 5421 5418 5419 5419 5420 5424 5430 5433 5437 5442 5454 5452 5466 5476 5495 5516 5515 5519 5517 5517 5537 5545 5546 5545 5555 5563 5570 5576
5455 5450 5450 5456 5459 5446 5439 5449 5444 5448 5466 5476 5437 5434 5425 5417 5413 5412 5411 5411 5415 5420 5422 5429 5434 5436 5437 5457 5473 5476 5484 5486 5480 5480 5485 5502 5527 5532 5536 5545 5548 5555 5559 5565
5443 5449 5446 5456 5463 5454 5442 5438 5444 5436 5440 5451 5439 5432 5419 5411 5411 5414 5410 5408 5411 5411 5411 5416 5422 5428 5435 5443 5447 5456 5461 5466 5472 5479 5484 5510 5513 5513 5521 5525 5530 5539 5546 5550
5441 5445 5448 5457 5462 5456 5444 5425 5427 5423 5423 5428 5433 5420 5413 5409 5406 5401 5403 5403 5398 5398 5400 5405 5409 5414 5418 5425 5432 5444 5456 5466 5473 5483 5481 5483 5487 5497 5508 5517 5526 5531 5535 5537
5441 5444 5442 5453 5458 5455 5430 5421 5419 5418 5415 5412 5412 5409 5409 5400 5396 5396 5393 5390 5387 5391 5394 5396 5397 5402 5401 5407 5416 5424 5431 5442 5452 5457 5461 5471 5480 5490 5499 5507 5515 5516 5521 5525
5436 5444 5447 5447 5452 5439 5435 5415 5407 5413 5410 5403 5407 5407 5409 5409 5405 5396 5386 5383 5378 5376 5378 5380 5384 5387 5391 5399 5407 5411 5427 5436 5444 5436 5449 5459 5466 5469 5479 5487 5497 5506 5513 5522
5430 5432 5440 5440 5442 5441 5416 5410 5408 5406 5416 5393 5396 5399 5398 5403 5408 5388 5377 5376 5375 5373 5375 5380 5379 5382 5390 5396 5406 5414 5420 5425 5429 5432 5439 5443 5450 5459 5468 5479 5487 5494 5503 5512
5433 5436 5426 5422 5434 5418 5396 5403 5407 5426 5398 5385 5383 5386 5390 5390 5380 5371 5366 5362 5361 5363 5367 5370 5370 5378 5385 5392 5400 5403 5408 5412 5417 5420 5427 5429 5437 5447 5455 5460 5469 5481 5490 5498
5426 5429 5422 5422 5417 5415 5389 5405 5404 5377 5381 5377 5373 5373 5375 5372 5366 5363 5361 5358 5354 5353 5356 5360 5364 5370 5377 5384 5389 5391 5396 5399 5403 5407 5412 5417 5425 5433 5438 5443 5452 5462 5472 5477
5417 5417 5415 5410 5405 5385 5379 5377 5371 5370 5371 5366 5364 5362 5360 5357 5352 5349 5348 5345 5344 5345 5347 5350 5353 5358 5364 5370 5375 5382 5383 5390 5392 5397 5401 5407 5411 5416 5420 5426 5430 5438 5446 5452
5407 5402 5401 5394 5384 5376 5370 5366 5364 5363 5359 5356 5352 5351 5349 5344 5340 5341 5339 5337 5335 5333 5336 5339 5344 5349 5353 5358 5363 5364 5371 5376 5379 5385 5388 5390 5394 5400 5404 5405 5407 5409 5418 5427
5401 5396 5387 5384 5374 5365 5361 5357 5354 5354 5352 5349 5342 5338 5336 5335 5329 5326 5324 5325 5325 5325 5325 5328 5331 5335 5339 5343 5347 5350 5356 5361 5364 5368 5369 5370 5375 5381 5384 5385 5383 5384 5387 5391
5388 5386 5384 5384 5367 5367 5356 5347 5345 5345 5342 5338 5336 5332 5327 5324 5318 5314 5311 5310 5310 5311 5314 5317 5319 5320 5323 5328 5331 5336 5340 5345 5350 5353 5352 5352 5355 5362 5363 5369 5368 5365 5375 5377